sat.trackr.live / text

‹ back to catalog

STARLINK-36197

NORAD 67205 · 2025-304P

PAYLOAD ACTIVE UNKNOWN

§ Identity

Operator
Country
US
Launch date
2025-12-17
Launch site
AFWTR
Launch vehicle
Mass (kg)
RCS (m²)

Purposes: comms

External: N2YO · Heavens-Above · Gunter

§ Orbital elements

Epoch: 2026-05-24T23:09:32.798016Z

Period
96.11 min
Inclination
70.0018°
Eccentricity
0.0002658
Mean motion
14.98339873 rev/d
Perigee alt
570.2 km
Apogee alt
573.9 km
Semi-major
6,950.2 km
B*
3.4753e-4
RAAN
341.9927°
Arg perigee
264.5190°
Mean anomaly
95.5666°
Rev number
2,528

§ Raw data

STARLINK-361971 67205U 25304P   26144.96496294  .00004057  00000+0  34753-3 0  99902 67205  70.0018 341.9927 0002658 264.5190  95.5666 14.98339873 25280

JSON: /api/v1/satellites/67205 · /tle

For live sub-satellite position, see the globe view (requires WebGL).

§ Visibility from observer

Set your observer location to see the next 7 days of passes ≥ 10°. The values pass through the URL so the page stays shareable.

No JS? Fill the form by hand. The geolocation button needs JavaScript.